Regional Weather Roundup
Issued by NWS

Home | Current Version | Previous Version | Graphics & Text | Print | Product List | Glossary On
Versions: 1 2 3 4 5 6 7 8 9 10 11 12 13 14 15 16 17 18 19 20 21 22 23 24 25 26 27 28 29 30 31 32 33 34 35 36 37 38 39 40 41 42 43 44 45 46 47 48 49 50
000
ASUS43 KMPX 160801
RWRMN
WEATHER ROUNDUP FOR MINNESOTA
NATIONAL WEATHER SERVICE TWIN CITIES/CHANHASSEN MN
300 AM CDT WED APR 16 2014


NOTE: "FAIR" INDICATES FEW OR NO CLOUDS BELOW 12,000 FEET WITH NO
SIGNIFICANT WEATHER AND/OR OBSTRUCTIONS TO VISIBILITY. N/A MEANS
CURRENT SKY AND/OR WEATHER CONDITIONS ARE NOT AVAILABLE.

MNZ060>063-068>070-160900-
   Twin Cities Metro

CITY           SKY/WX    TMP DP  RH WIND       PRES   REMARKS
TWIN CITIES    CLOUDY    33  16  49 E17       30.02F WCI  22
ST PAUL        CLOUDY    34  19  54 E13       30.06F WCI  25
CRYSTAL        CLOUDY    33  20  58 E12G21    30.02F WCI  24
BLAINE         CLOUDY    34  21  60 E15       30.04S WCI  24
EDEN PRAIRIE   CLOUDY    35  15  44 E13G22    30.00F WCI  26
LAKEVILLE      MOCLDY    30  19  64 E12       30.01F WCI  21
SOUTH ST PAUL  CLOUDY    37  19  48 E7        30.04F
LAKE ELMO      CLOUDY    32  21  64 E10       30.07S WCI  24
$$
MNZ001>005-007-008-013>017-022>024-027-028-160900-
   Northwest Minnesota

CITY           SKY/WX    TMP DP  RH WIND       PRES   REMARKS
BEMIDJI        CLOUDY    26   2  36 E8        30.02S WCI  18
HALLOCK        CLOUDY    27  12  54 E12       30.07R WCI  16
ROSEAU         PTCLDY    23  12  63 E8        30.09S WCI  14
WARROAD        PTCLDY    18   9  68 E7        30.11R WCI   8
THIEF RVR FALL CLOUDY    25   9  50 E10       30.03F WCI  15
CROOKSTON      CLOUDY    28  10  47 E9        30.02F WCI  20
FOSSTON        CLOUDY    27   9  46 E7        30.01S WCI  19
DETROIT LAKES  MIX PCPN  30  19  64 SE16G22   29.97S WCI  19
MOORHEAD       CLOUDY    28  27  93 E14       29.96F WCI  17
PARK RAPIDS    CLOUDY    28   5  37 SE6       29.99F WCI  22
$$
MNZ006-009>011-018-025>026-160900-
   North Central Minnesota

CITY           SKY/WX    TMP DP  RH WIND       PRES   REMARKS
BAUDETTE       PTCLDY    19   6  57 E7        30.10S WCI  10
FLAG ISLAND    PTCLDY    12   9  85 N3        30.11S
INTL FALLS     PTCLDY    18   7  62 E5        30.11S WCI  11
WASKISH        MOCLDY    21   9  58 E8        30.08S WCI  12
BIG FORK       PTCLDY    21   5  49 E6        30.08S WCI  14
LONGVILLE      CLOUDY    27   7  43 E3        30.04S
GRAND RAPIDS   CLOUDY    25   3  39 E5        30.05F WCI  19
CRANE LAKE     CLEAR      5   1  85 CALM      30.14S
ORR            PTCLDY    16   3  57 E3        30.08S
COOK           PTCLDY    16   7  67 CALM      30.10S
$$
MNZ012-019>021-037-160900-
   Northeast Minnesota

CITY           SKY/WX    TMP DP  RH WIND       PRES   REMARKS
DULUTH         CLOUDY    23   9  55 E7        30.08S WCI  15
ELY            PTCLDY     9   7  92 CALM      30.11R
HIBBING        MOCLDY    22   8  55 E6        30.08S WCI  14
EVELETH        MOCLDY    21   9  58 NE6       30.10S WCI  14
DULUTH HARBOR  CLOUDY    27  16  63 CALM      30.14S
TWO HARBORS    MOCLDY    19   7  58 N5        30.10S WCI  13
SILVER BAY     MOCLDY    12  10  92 CALM      30.11S
GRAND MARAIS     N/A     19   4  51 N3        30.16F
G MARAIS ARPRT CLEAR      3  -2  78 N5        30.09F WCI  -6
$$
MNZ029>031-032-039>041-046>048-054>057-064-160900-
   West Central Minnesota

CITY           SKY/WX    TMP DP  RH WIND       PRES   REMARKS
FERGUS FALLS   LGT SNOW  27  23  86 E13G21    29.90F WCI  16
WHEATON        CLOUDY    32  25  74 E23G32    29.89F WCI  19
MORRIS         CLOUDY    30  21  69 E28G33    29.87R WCI  16
ALEXANDRIA     LGT SNOW  27  23  85 E18G28    29.93F FOG     WCI  14
ELBOW LAKE     CLOUDY    28  24  85 E21G29    29.90F WCI  15
WADENA         LGT SNOW  25  19  80 E12G17    29.97F WCI  14
GLENWOOD       CLOUDY    28  21  74 E21G32    29.92F WCI  15
APPLETON       CLOUDY    34  18  51 E22G29    29.85F WCI  22
BENSON         CLOUDY    30  21  69 SE18G28   29.87F WCI  18
ORTONVILLE     CLOUDY    32  16  51 E17G26    29.84F WCI  21
MADISON        CLOUDY    36  21  55 SE24G31   29.82F
WILLMAR        FAIR      34  19  55 E21G28    29.91F WCI  22
$$
MNZ033>034-036-042>043-049>051-058-059-160900-
   Central Minnesota

CITY           SKY/WX    TMP DP  RH WIND       PRES   REMARKS
ST CLOUD       LGT SNOW  29  24  82 E12G17    30.01F WCI  19
SAUK CENTRE    LGT SNOW  27  24  88 E16       29.96F WCI  15
PAYNESVILLE    CLOUDY    30  22  71 E15       29.96F WCI  19
AITKIN         CLOUDY    30   1  29 E5        30.04S WCI  25
PINE RIVER     CLOUDY    27   9  46 E8        30.06S WCI  18
BRAINERD       CLOUDY    33   6  32 VRB5      30.03F WCI  29
STAPLES        CLOUDY    27  18  69 E10       29.99F WCI  17
LONG PRAIRIE   CLOUDY    25  23  93 E10G20    29.97F WCI  15
LITTLE FALLS   LGT SNOW  27  23  86 E9G16     30.02F WCI  17
LITCHFIELD     CLOUDY    34  21  60 E14G23    29.95F WCI  24
BUFFALO        LGT SNOW  30  25  80 E10       30.01F WCI  21
MAPLE LAKE     LGT SNOW  30  28  90 E12       30.01F WCI  21
$$
MNZ037-044-045-052-053-160900-
   East Central Minnesota

CITY           SKY/WX    TMP DP  RH WIND       PRES   REMARKS
PRINCETON      LGT SNOW  28  27  93 E7        30.05F WCI  21
MORA           CLOUDY    30  12  47 E6        30.07F WCI  24
CAMBRIDGE      LGT SNOW  30  23  74 E5        30.04F VSB 1   WCI  25
RUSH CITY      CLOUDY    30  12  47 E3        30.07F
MOOSE LAKE     CLOUDY    28   5  37 E3        30.06S
HINCKLEY       CLOUDY    30   9  40 E6        30.07F WCI  24
CLOQUET        CLOUDY    25   5  42 E5        30.07F WCI  19
MCGREGOR       CLOUDY    28   9  43 E7        30.06S WCI  21
$$
MNZ071>073-080-081-089-090-097-098-160900-
   Southwest Minnesota

CITY           SKY/WX    TMP DP  RH WIND       PRES   REMARKS
MONTEVIDEO     CLOUDY    34  19  55 SE25G32   29.84F WCI  21
GRANITE FALLS  CLOUDY    33  19  57 E20G26    29.87F WCI  21
CANBY          CLOUDY    33  23  67 SE20G28   29.80F WCI  21
MARSHALL       CLOUDY    34  19  55 SE20G26   29.80F WCI  22
REDWOOD FALLS  CLOUDY    34  19  54 E20G29    29.86S WCI  23
OLIVIA         CLOUDY    34  21  60 E16G24    29.89S WCI  23
PIPESTONE      CLOUDY    36  25  64 SE16G23   29.71F
WINDOM         MOCLDY    34  21  60 E17G23    29.81F WCI  23
WORTHINGTON    MOCLDY    34  21  60 SE18      29.77F WCI  23
JACKSON        MOCLDY    34  23  64 SE17G24   29.82F WCI  23
TRACY          CLOUDY    34  22  61 SE17G24   29.80F WCI  24
SLAYTON        CLOUDY    32  23  69 SE22      29.76F WCI  19
$$
MNZ065>067-074>077-082>085-091>093-160900-
   South Central Minnesota

CITY           SKY/WX    TMP DP  RH WIND       PRES   REMARKS
MANKATO        CLOUDY    34  19  55 E23G30    29.93F WCI  22
NEW ULM        MOCLDY    34  19  55 E16G25    29.88F WCI  23
ST JAMES       MOCLDY    36  21  55 E22G29    29.87F
FAIRMONT       CLOUDY    34  19  55 SE25G33   29.86F WCI  21
GLENCOE        CLOUDY    34  17  49 E18       29.94F WCI  23
FARIBAULT      CLOUDY    36  14  41 E14G21    29.99F
OWATONNA       MOCLDY    34  19  55 E17G24    29.98F WCI  23
WASECA         CLOUDY    34  23  64 E21G26    29.97F WCI  22
ALBERT LEA     MOCLDY    34  19  55 SE16G22   29.95F WCI  23
$$
MNZ078>079-086>088-094>096-160900-
   Southeast Minnesota

CITY           SKY/WX    TMP DP  RH WIND       PRES   REMARKS
ROCHESTER      CLOUDY    31  19  61 SE16      30.02F WCI  20
RED WING       CLOUDY    36  18  48 SE13      30.06F
STANTON        CLOUDY    34  18  52 E12       30.00F WCI  25
DODGE CENTER   MOCLDY    34  21  60 SE18      29.99F WCI  23
WINONA         CLOUDY    34  23  64 SE8       30.11S WCI  27
AUSTIN         MOCLDY    30  21  69 SE16      29.99F WCI  19
PRESTON        CLOUDY    32  19  59 SE10      30.04F WCI  24
$$
ABBREVIATIONS USED IN REMARKS
   TC - TEMPERATURES IN CELSIUS
  WCI - WIND CHILL INDEX
   HX - HEAT INDEX
  VSB - VISIBILITY
$$



USA.gov is the U.S. government's official web portal to all federal, state and local government web resources and services.